• In Hungary
  • List of Countries
  • For 7 days
  • Water Temperature
  • Satellite Maps
  • Weather Map
  • News
  • Weather Widgets
  • user-avatar
    Login

    Hourly Weather Newcastle

    Today, 18 January, Thursday

    Time Temperature Precipitation Wind Pressure Humidity
    00:00 +15°C° 0 mm 2 mps 764 mmHg 90%
    01:00 +14°C° 0 mm 2 mps 764 mmHg 92%
    02:00 +14°C° 0 mm 2 mps 764 mmHg 92%
    03:00 +14°C° 0 mm 2 mps 764 mmHg 92%
    04:00 +13°C° 0 mm 2 mps 763 mmHg 94%
    05:00 +15°C° 0 mm 2 mps 763 mmHg 85%
    06:00 +17°C° 0 mm 2 mps 764 mmHg 75%
    07:00 +19°C° 0 mm 2 mps 764 mmHg 66%
    08:00 +23°C° 0 mm 2 mps 764 mmHg 55%
    09:00 +27°C° 0 mm 2 mps 763 mmHg 44%
    10:00 +31°C° 0 mm 1 mps 763 mmHg 32%
    11:00 +32°C° 0 mm 2 mps 763 mmHg 30%
    12:00 +32°C° 0 mm 2 mps 762 mmHg 28%
    13:00 +34°C° 0 mm 2 mps 762 mmHg 26%
    14:00 +34°C° 0 mm 3 mps 761 mmHg 28%
    15:00 +33°C° 0 mm 3 mps 761 mmHg 30%
    16:00 +31°C° 0 mm 3 mps 761 mmHg 33%
    17:00 +28°C° 0 mm 3 mps 761 mmHg 43%
    18:00 +26°C° 0 mm 3 mps 761 mmHg 54%
    19:00 +22°C° 0 mm 3 mps 761 mmHg 64%
    20:00 +20°C° 0 mm 2 mps 761 mmHg 71%
    21:00 +19°C° 0 mm 2 mps 762 mmHg 78%
    22:00 +18°C° 0 mm 1 mps 762 mmHg 85%
    23:00 +18°C° 0 mm 1 mps 762 mmHg 87%

    Tomorrow, 19 January, Friday

    Time Temperature Precipitation Wind Pressure Humidity
    00:00 +16°C° 0 mm 1 mps 762 mmHg 89%
    01:00 +15°C° 0 mm 0 mps 761 mmHg 91%
    02:00 +16°C° 0 mm 1 mps 761 mmHg 91%
    03:00 +15°C° 0 mm 1 mps 761 mmHg 90%
    04:00 +15°C° 0 mm 1 mps 761 mmHg 89%
    05:00 +18°C° 0 mm 1 mps 761 mmHg 79%
    06:00 +20°C° 0 mm 1 mps 761 mmHg 69%
    07:00 +22°C° 0 mm 1 mps 762 mmHg 59%
    08:00 +26°C° 0 mm 1 mps 761 mmHg 48%
    09:00 +30°C° 0 mm 1 mps 761 mmHg 37%
    10:00 +34°C° 0 mm 1 mps 761 mmHg 26%
    11:00 +35°C° 0 mm 1 mps 760 mmHg 24%
    12:00 +37°C° 0 mm 2 mps 760 mmHg 22%
    13:00 +37°C° 0 mm 3 mps 759 mmHg 21%
    14:00 +37°C° 0 mm 3 mps 759 mmHg 22%
    15:00 +36°C° 0 mm 3 mps 758 mmHg 22%
    16:00 +35°C° 0 mm 4 mps 758 mmHg 23%
    17:00 +31°C° 0 mm 3 mps 758 mmHg 35%
    18:00 +27°C° 0 mm 3 mps 759 mmHg 47%
    19:00 +24°C° 0 mm 3 mps 759 mmHg 58%
    20:00 +21°C° 0 mm 3 mps 760 mmHg 66%
    21:00 +20°C° 0 mm 2 mps 760 mmHg 74%
    22:00 +18°C° 0 mm 2 mps 760 mmHg 81%
    23:00 +17°C° 0 mm 2 mps 760 mmHg 84%

    Day after tomorrow, 20 January, Saturday

    Time Temperature Precipitation Wind Pressure Humidity
    00:00 +18°C° 0 mm 1 mps 760 mmHg 86%
    01:00 +16°C° 0 mm 1 mps 760 mmHg 88%
    02:00 +16°C° 0 mm 1 mps 760 mmHg 88%
    03:00 +16°C° 0 mm 1 mps 759 mmHg 87%
    04:00 +15°C° 0 mm 1 mps 759 mmHg 86%
    05:00 +19°C° 0 mm 1 mps 760 mmHg 77%
    06:00 +21°C° 0 mm 1 mps 760 mmHg 68%
    07:00 +23°C° 0 mm 1 mps 761 mmHg 59%
    08:00 +26°C° 0 mm 1 mps 760 mmHg 50%
    09:00 +29°C° 0 mm 1 mps 760 mmHg 41%
    10:00 +32°C° 0 mm 1 mps 760 mmHg 32%
    11:00 +34°C° 0 mm 2 mps 760 mmHg 30%
    12:00 +35°C° 0 mm 3 mps 759 mmHg 28%
    13:00 +36°C° 0 mm 3 mps 759 mmHg 25%
    14:00 +35°C° 0 mm 4 mps 759 mmHg 30%
    15:00 +34°C° 0 mm 4 mps 758 mmHg 34%
    16:00 +33°C° 0 mm 4 mps 758 mmHg 39%
    17:00 +29°C° 0 mm 4 mps 759 mmHg 50%
    18:00 +27°C° 0 mm 3 mps 759 mmHg 61%
    19:00 +24°C° 0 mm 3 mps 760 mmHg 72%
    20:00 +22°C° 0 mm 3 mps 760 mmHg 80%
    21:00 +21°C° 0 mm 3 mps 760 mmHg 88%
    22:00 +20°C° 0 mm 3 mps 760 mmHg 95%
    23:00 +19°C° 0 mm 3 mps 760 mmHg 96%

    21 January, Sunday

    Time Temperature Precipitation Wind Pressure Humidity
    00:00 +19°C° 0 mm 2 mps 760 mmHg 97%
    01:00 +19°C° 0 mm 2 mps 759 mmHg 98%
    02:00 +19°C° 0 mm 2 mps 759 mmHg 98%
    03:00 +19°C° 0 mm 2 mps 759 mmHg 98%
    04:00 +18°C° 0 mm 2 mps 759 mmHg 98%
    05:00 +21°C° 0 mm 1 mps 759 mmHg 93%
    06:00 +22°C° 0 mm 1 mps 759 mmHg 88%
    07:00 +23°C° 0 mm 1 mps 759 mmHg 83%
    08:00 +26°C° 0 mm 1 mps 759 mmHg 70%
    09:00 +29°C° 0 mm 2 mps 759 mmHg 58%
    10:00 +31°C° 0 mm 2 mps 759 mmHg 46%
    11:00 +33°C° 0 mm 3 mps 758 mmHg 43%
    12:00 +35°C° 0 mm 4 mps 758 mmHg 41%
    13:00 +36°C° 0 mm 4 mps 757 mmHg 39%
    14:00 +35°C° 0 mm 5 mps 757 mmHg 40%
    15:00 +35°C° 0 mm 5 mps 756 mmHg 42%
    16:00 +34°C° 0 mm 5 mps 756 mmHg 44%
    17:00 +32°C° 0 mm 5 mps 756 mmHg 53%
    18:00 +29°C° 0 mm 5 mps 757 mmHg 62%
    19:00 +27°C° 0 mm 5 mps 757 mmHg 71%
    20:00 +25°C° 0 mm 5 mps 757 mmHg 77%
    21:00 +23°C° 0 mm 5 mps 758 mmHg 83%
    22:00 +22°C° 0 mm 5 mps 758 mmHg 88%
    23:00 +22°C° 0 mm 5 mps 758 mmHg 90%

    22 January, Monday

    Time Temperature Precipitation Wind Pressure Humidity
    00:00 +22°C° 0 mm 5 mps 757 mmHg 92%
    01:00 +21°C° 0 mm 5 mps 757 mmHg 94%
    02:00 +21°C° 0 mm 5 mps 756 mmHg 94%
    03:00 +20°C° 0 mm 5 mps 756 mmHg 94%
    04:00 +20°C° 0 mm 5 mps 756 mmHg 94%
    05:00 +21°C° 0 mm 4 mps 756 mmHg 87%
    06:00 +22°C° 0 mm 4 mps 756 mmHg 80%
    07:00 +25°C° 0 mm 4 mps 756 mmHg 73%
    08:00 +29°C° 0 mm 3 mps 756 mmHg 59%
    09:00 +33°C° 0 mm 3 mps 756 mmHg 44%
    10:00 +37°C° 0 mm 3 mps 756 mmHg 30%
    11:00 +40°C° 0 mm 4 mps 755 mmHg 26%
    12:00 +42°C° 0 mm 4 mps 755 mmHg 22%
    13:00 +45°C° 0 mm 5 mps 754 mmHg 18%
    14:00 +42°C° 0 mm 5 mps 754 mmHg 21%
    15:00 +41°C° 0 mm 6 mps 754 mmHg 25%
    16:00 +40°C° 0 mm 7 mps 753 mmHg 28%
    17:00 +36°C° 0 mm 7 mps 754 mmHg 37%
    18:00 +33°C° 0 mm 7 mps 754 mmHg 47%
    19:00 +29°C° 0 mm 7 mps 755 mmHg 57%
    20:00 +28°C° 0 mm 6 mps 755 mmHg 61%
    21:00 +27°C° 0 mm 6 mps 755 mmHg 66%
    22:00 +26°C° 0 mm 6 mps 756 mmHg 70%
    23:00 +24°C° 0 mm 6 mps 755 mmHg 73%

    23 January, Tuesday

    Time Temperature Precipitation Wind Pressure Humidity
    00:00 +23°C° 0 mm 6 mps 755 mmHg 76%
    01:00 +23°C° 0 mm 6 mps 755 mmHg 78%
    02:00 +22°C° 0 mm 5 mps 755 mmHg 83%
    03:00 +21°C° 0 mm 4 mps 755 mmHg 87%
    04:00 +20°C° 0 mm 3 mps 755 mmHg 92%
    05:00 +21°C° 0 mm 3 mps 755 mmHg 85%
    06:00 +24°C° 0 mm 3 mps 755 mmHg 79%
    07:00 +25°C° 0 mm 3 mps 756 mmHg 72%
    08:00 +29°C° 0 mm 3 mps 755 mmHg 61%
    09:00 +33°C° 0 mm 3 mps 755 mmHg 49%
    10:00 +37°C° 0 mm 3 mps 755 mmHg 38%
    11:00 +38°C° 0 mm 4 mps 754 mmHg 34%
    12:00 +40°C° 0 mm 4 mps 754 mmHg 31%
    13:00 +42°C° 0 mm 5 mps 753 mmHg 28%
    14:00 +41°C° 0 mm 5 mps 753 mmHg 30%
    15:00 +40°C° 0 mm 6 mps 752 mmHg 32%
    16:00 +39°C° 0 mm 6 mps 752 mmHg 35%
    17:00 +35°C° 0 mm 7 mps 752 mmHg 43%
    18:00 +33°C° 0 mm 7 mps 752 mmHg 52%
    19:00 +30°C° 0 mm 7 mps 753 mmHg 61%
    20:00 +29°C° 0 mm 6 mps 754 mmHg 65%
    21:00 +28°C° 0 mm 5 mps 755 mmHg 68%
    22:00 +27°C° 0 mm 4 mps 756 mmHg 71%
    23:00 +27°C° 0 mm 4 mps 755 mmHg 75%
    Show more